TimeCST,TemperatureF,Dew PointF,Humidity,Sea Level PressureIn,VisibilityMPH,Wind Direction,Wind SpeedMPH,Gust SpeedMPH,PrecipitationIn,Events,Conditions,WindDirDegrees,DateUTC
12:15 AM,19.4,15.8,86,30.12,10.0,East,5.8,-,N/A,,Clear,80,2013-02-25 06:15:00
12:35 AM,19.4,15.8,86,30.12,9.0,East,4.6,-,N/A,,Clear,80,2013-02-25 06:35:00
12:55 AM,19.4,15.8,86,30.12,8.0,Calm,Calm,-,N/A,,Clear,0,2013-02-25 06:55:00
1:15 AM,19.4,15.8,86,30.12,8.0,ENE,4.6,-,N/A,,Clear,70,2013-02-25 07:15:00
1:35 AM,19.4,15.8,86,30.12,8.0,East,4.6,-,N/A,,Clear,80,2013-02-25 07:35:00
1:55 AM,19.4,15.8,86,30.12,7.0,ENE,3.5,-,N/A,,Clear,70,2013-02-25 07:55:00
2:15 AM,19.4,15.8,86,30.12,5.0,ENE,4.6,-,N/A,,Clear,70,2013-02-25 08:15:00
2:35 AM,19.4,15.8,86,30.12,6.0,ENE,4.6,-,N/A,,Clear,70,2013-02-25 08:35:00
2:55 AM,19.4,15.8,86,30.11,5.0,East,5.8,-,N/A,,Clear,80,2013-02-25 08:55:00
3:15 AM,19.4,15.8,86,30.10,5.0,East,5.8,-,N/A,,Clear,90,2013-02-25 09:15:00
3:35 AM,17.6,14.0,86,30.11,5.0,East,5.8,-,N/A,,Clear,80,2013-02-25 09:35:00
4:15 AM,17.6,15.8,93,30.11,5.0,ENE,3.5,-,N/A,,Clear,70,2013-02-25 10:15:00
4:35 AM,17.6,15.8,93,30.12,5.0,ENE,4.6,-,N/A,,Clear,70,2013-02-25 10:35:00
4:55 AM,17.6,15.8,93,30.12,5.0,East,5.8,-,N/A,,Scattered Clouds,80,2013-02-25 10:55:00
5:15 AM,19.4,15.8,86,30.13,6.0,ENE,3.5,-,N/A,,Overcast,70,2013-02-25 11:15:00
5:35 AM,19.4,15.8,86,30.13,6.0,ENE,3.5,-,N/A,,Overcast,60,2013-02-25 11:35:00
5:55 AM,19.4,15.8,86,30.13,5.0,ENE,4.6,-,N/A,,Scattered Clouds,60,2013-02-25 11:55:00
6:15 AM,19.4,15.8,86,30.12,6.0,ENE,5.8,-,N/A,,Partly Cloudy,70,2013-02-25 12:15:00
6:35 AM,19.4,15.8,86,30.12,5.0,ENE,4.6,-,N/A,,Mostly Cloudy,70,2013-02-25 12:35:00
6:55 AM,19.4,15.8,86,30.11,5.0,East,5.8,-,N/A,,Mostly Cloudy,80,2013-02-25 12:55:00
7:15 AM,19.4,15.8,86,30.12,5.0,East,5.8,-,N/A,,Partly Cloudy,100,2013-02-25 13:15:00
7:35 AM,19.4,15.8,86,30.13,5.0,East,5.8,-,N/A,,Clear,80,2013-02-25 13:35:00
7:55 AM,21.2,17.6,86,30.13,5.0,East,4.6,-,N/A,,Clear,80,2013-02-25 13:55:00
8:15 AM,24.8,19.4,80,30.13,5.0,East,4.6,-,N/A,,Clear,80,2013-02-25 14:15:00
8:35 AM,26.6,21.2,80,30.13,5.0,East,8.1,-,N/A,,Clear,80,2013-02-25 14:35:00
8:55 AM,26.6,23.0,86,30.14,5.0,ENE,6.9,-,N/A,,Clear,70,2013-02-25 14:55:00
9:15 AM,28.4,24.8,86,30.13,5.0,East,6.9,-,N/A,,Clear,80,2013-02-25 15:15:00
9:35 AM,30.2,24.8,80,30.12,5.0,East,6.9,-,N/A,,Clear,80,2013-02-25 15:35:00
9:55 AM,30.2,24.8,80,30.12,6.0,East,6.9,-,N/A,,Clear,80,2013-02-25 15:55:00
10:15 AM,33.8,28.4,81,30.11,8.0,East,8.1,-,N/A,,Clear,90,2013-02-25 16:15:00
10:35 AM,35.6,26.6,70,30.12,9.0,East,4.6,-,N/A,,Clear,100,2013-02-25 16:35:00
10:55 AM,37.4,26.6,65,30.13,10.0,SE,5.8,-,N/A,,Clear,130,2013-02-25 16:55:00
11:15 AM,37.4,26.6,65,30.13,10.0,ESE,6.9,-,N/A,,Partly Cloudy,110,2013-02-25 17:15:00
11:35 AM,37.4,26.6,65,30.13,10.0,ESE,6.9,-,N/A,,Clear,110,2013-02-25 17:35:00
11:55 AM,37.4,26.6,65,30.12,10.0,ESE,6.9,-,N/A,,Clear,110,2013-02-25 17:55:00
12:15 PM,37.4,28.4,70,30.10,10.0,East,8.1,-,N/A,,Clear,100,2013-02-25 18:15:00
12:35 PM,37.4,28.4,70,30.10,10.0,East,8.1,-,N/A,,Clear,100,2013-02-25 18:35:00
12:55 PM,37.4,28.4,70,30.10,10.0,East,8.1,-,N/A,,Clear,100,2013-02-25 18:55:00
1:15 PM,37.4,28.4,70,30.09,10.0,East,8.1,-,N/A,,Clear,100,2013-02-25 19:15:00
1:55 PM,37.4,28.4,70,30.08,10.0,East,6.9,-,N/A,,Clear,80,2013-02-25 19:55:00
2:35 PM,37.4,28.4,70,30.07,10.0,East,9.2,-,N/A,,Clear,80,2013-02-25 20:35:00
2:55 PM,37.4,28.4,70,30.07,10.0,East,8.1,-,N/A,,Clear,80,2013-02-25 20:55:00
3:15 PM,37.4,28.4,70,30.05,10.0,East,9.2,-,N/A,,Clear,80,2013-02-25 21:15:00
3:35 PM,37.4,28.4,70,30.05,10.0,ENE,8.1,-,N/A,,Clear,60,2013-02-25 21:35:00
3:55 PM,37.4,28.4,70,30.04,10.0,ENE,8.1,-,N/A,,Clear,60,2013-02-25 21:55:00
4:15 PM,35.6,28.4,75,30.03,10.0,ENE,11.5,-,N/A,,Clear,70,2013-02-25 22:15:00
4:35 PM,35.6,28.4,75,30.02,10.0,ENE,9.2,-,N/A,,Clear,70,2013-02-25 22:35:00
4:55 PM,35.6,28.4,75,30.03,10.0,ENE,8.1,-,N/A,,Clear,70,2013-02-25 22:55:00
5:15 PM,35.6,28.4,75,30.02,10.0,ENE,9.2,-,N/A,,Clear,70,2013-02-25 23:15:00
5:35 PM,35.6,28.4,75,30.02,10.0,ENE,9.2,-,N/A,,Clear,70,2013-02-25 23:35:00
5:55 PM,35.6,28.4,75,30.01,10.0,NE,6.9,-,N/A,,Clear,50,2013-02-25 23:55:00
6:15 PM,35.6,26.6,70,30.01,10.0,NE,6.9,-,N/A,,Clear,50,2013-02-26 00:15:00
6:35 PM,35.6,28.4,75,30.00,10.0,NE,8.1,-,N/A,,Clear,50,2013-02-26 00:35:00
6:55 PM,35.6,28.4,75,30.00,10.0,NE,6.9,-,N/A,,Clear,50,2013-02-26 00:55:00
7:15 PM,35.6,26.6,70,29.99,10.0,NE,6.9,-,N/A,,Clear,40,2013-02-26 01:15:00
7:35 PM,33.8,26.6,75,29.99,10.0,NE,5.8,-,N/A,,Clear,40,2013-02-26 01:35:00
8:15 PM,35.6,26.6,70,30.00,10.0,NE,5.8,-,N/A,,Clear,50,2013-02-26 02:15:00
8:35 PM,35.6,28.4,75,30.00,10.0,ENE,11.5,-,N/A,,Clear,70,2013-02-26 02:35:00
8:55 PM,35.6,26.6,70,30.00,10.0,ENE,13.8,-,N/A,,Clear,70,2013-02-26 02:55:00
9:15 PM,33.8,26.6,75,30.00,9.0,ENE,12.7,-,N/A,,Clear,70,2013-02-26 03:15:00
9:35 PM,33.8,28.4,81,30.00,8.0,ENE,12.7,-,N/A,,Clear,70,2013-02-26 03:35:00
9:55 PM,33.8,26.6,75,30.00,9.0,East,13.8,-,N/A,,Clear,80,2013-02-26 03:55:00
10:15 PM,33.8,26.6,75,29.99,8.0,East,15.0,-,N/A,,Scattered Clouds,80,2013-02-26 04:15:00
10:35 PM,33.8,26.6,75,29.97,10.0,East,13.8,-,N/A,,Clear,80,2013-02-26 04:35:00
10:55 PM,33.8,26.6,75,29.97,10.0,East,13.8,-,N/A,,Clear,80,2013-02-26 04:55:00
11:15 PM,33.8,26.6,75,29.94,10.0,ENE,17.3,-,N/A,,Clear,70,2013-02-26 05:15:00
11:35 PM,33.8,26.6,75,29.93,10.0,ENE,17.3,-,N/A,,Clear,70,2013-02-26 05:35:00
11:55 PM,33.8,26.6,75,29.93,10.0,East,13.8,-,N/A,,Clear,80,2013-02-26 05:55:00